DW3838 Weather Reports


Display with metric or nautical units.
time (UTC)temp
F
wind
direction
speed
MPH
gust
MPH
rain 1hr
in
rain 24hr
in
rain mn
in
humidity
%
barometer
mb
20260510133103 49 27 0.0 0.0 0.00 0.00 0.00 93 1014.3
20260510131604 49 27 0.0 0.0 0.00 0.00 0.00 93 1014.2
20260510130057 49 27 0.0 0.0 0.00 0.00 0.00 93 1014.2
20260510124611 49 27 0.0 0.0 0.00 0.00 0.00 93 1014.2
20260510123056 49 27 0.0 0.0 0.00 0.00 0.00 93 1014.2
20260510121555 49 27 0.0 0.0 0.00 0.00 0.00 93 1014.2
20260510120055 49 27 0.0 0.0 0.00 0.00 0.00 93 1014.2
20260510114554 49 27 0.0 0.0 0.00 0.00 0.00 92 1014.2
20260510113101 49 27 0.0 0.0 0.00 0.00 0.00 92 1014.3
20260510111607 49 27 0.0 0.0 0.00 0.00 0.00 92 1014.3
20260510110057 48 27 0.0 0.0 0.00 0.00 0.00 92 1014.3
20260510104604 48 27 0.0 0.0 0.00 0.00 0.00 92 1014.2
20260510103049 48 27 0.0 0.0 0.00 0.00 0.00 91 1014.1
20260510101551 48 26 0.0 0.0 0.00 0.00 0.00 91 1014.1
20260510100048 48 26 0.0 0.0 0.00 0.00 0.00 91 1014.1
20260510094548 48 26 0.0 0.0 0.00 0.00 0.00 91 1014.2
20260510093048 48 26 0.0 0.0 0.00 0.00 0.00 91 1014.2
20260510091554 48 26 0.0 0.0 0.00 0.00 0.00 90 1014.1
20260510090057 48 26 0.0 0.0 0.00 0.00 0.00 90 1014.2
20260510084553 48 26 0.0 0.0 0.00 0.00 0.00 90 1014.3
20260510083043 48 26 0.0 0.0 0.00 0.00 0.00 89 1014.4
20260510081545 48 26 0.0 0.0 0.00 0.00 0.00 89 1014.4
20260510080041 48 26 0.0 0.0 0.00 0.00 0.00 89 1014.3
20260510074538 48 26 0.0 0.0 0.00 0.00 0.00 88 1014.3
20260510073041 48 26 0.0 0.0 0.00 0.00 0.00 88 1014.3
20260510071539 49 26 0.0 0.0 0.00 0.00 0.00 88 1014.3
20260510070043 49 26 0.0 0.0 0.00 0.00 0.00 88 1014.2
20260510064554 50 26 0.0 0.0 0.00 0.00 0.00 88 1014.2
20260510063039 51 26 0.0 0.0 0.00 0.00 0.00 88 1014.0
20260510061543 51 26 0.0 0.0 0.00 0.00 0.00 87 1013.9
20260510060037 52 26 0.0 0.0 0.00 0.00 0.00 87 1014.1
20260510054530 53 26 0.0 0.0 0.00 0.00 0.00 88 1014.0
20260510053029 54 26 0.0 0.0 0.00 0.00 0.00 87 1014.0
20260510051529 55 26 0.0 0.0 0.00 0.00 0.00 87 1013.9
20260510050028 55 26 0.0 0.0 0.00 0.00 0.00 87 1013.8
20260510044532 56 26 0.0 0.0 0.00 0.00 0.00 86 1013.7
20260510043028 57 27 0.0 0.0 0.00 0.00 0.00 86 1013.5
20260510041527 58 27 0.0 0.0 0.00 0.00 0.00 84 1013.3
20260510040028 59 27 0.0 0.0 0.00 0.00 0.00 82 1013.2
20260510034526 60 27 0.0 0.0 0.00 0.00 0.00 81 1013.1
20260510033025 61 27 0.0 0.0 0.00 0.00 0.00 80 1012.9
20260510031532 62 27 0.0 0.0 0.00 0.00 0.00 79 1012.7
20260510030024 63 27 0.0 0.0 0.00 0.00 0.00 77 1012.7
20260510024528 63 27 0.0 0.0 0.00 0.00 0.00 75 1012.6
20260510023023 65 26 0.0 0.0 0.00 0.00 0.00 73 1012.5
20260510021522 66 189 0.0 0.0 0.00 0.00 0.00 72 1012.5
20260510020022 68 181 0.0 0.0 0.00 0.00 0.00 71 1012.4
20260510014527 69 181 0.0 0.0 0.00 0.00 0.00 69 1012.4
20260510013023 70 181 0.0 0.0 0.00 0.00 0.00 66 1012.3
20260510011523 71 180 0.0 0.0 0.00 0.00 0.00 63 1012.3
20260510010019 72 207 0.0 5.0 0.00 0.00 0.00 64 1012.3
20260510004517 73 204 0.0 2.0 0.00 0.00 0.00 62 1012.4
20260510003016 74 182 0.0 6.0 0.00 0.00 0.00 61 1012.5
20260510001515 74 176 1.0 7.0 0.00 0.00 0.00 60 1012.5
20260510000013 74 184 2.0 8.0 0.00 0.00 0.00 59 1012.7
20260509234519 76 239 2.0 8.0 0.00 0.00 0.00 58 1012.8
20260509233023 77 214 4.0 10.0 0.00 0.00 0.00 55 1013.0
20260509231507 77 203 1.0 7.0 0.00 0.00 0.00 56 1013.0
20260509230006 76 196 4.0 8.0 0.00 0.00 0.00 56 1013.2
20260509224605 76 220 2.0 6.0 0.00 0.00 0.00 59 1013.4
20260509223058 75 114 0.0 9.0 0.00 0.00 0.00 57 1013.6
20260509221559 73 200 1.0 10.0 0.00 0.00 0.00 57 1013.9
20260509220054 74 214 5.0 9.0 0.00 0.00 0.00 56 1014.0
20260509214552 75 178 1.0 9.0 0.00 0.00 0.00 59 1014.2
20260509213049 74 178 1.0 7.0 0.00 0.00 0.00 60 1014.4
20260509211555 74 210 3.0 11.0 0.00 0.00 0.00 56 1014.5
20260509204544 74 176 1.0 7.0 0.00 0.00 0.00 61 1014.6
20260509203045 74 178 0.0 7.0 0.00 0.00 0.00 64 1014.8
20260509201548 73 172 2.0 9.0 0.00 0.00 0.00 65 1014.9
20260509200035 72 236 1.0 10.0 0.00 0.00 0.00 67 1015.1
20260509194531 71 202 1.0 6.0 0.00 0.00 0.00 69 1015.2
20260509193030 69 190 1.0 7.0 0.00 0.00 0.00 71 1015.3
20260509191528 71 112 1.0 8.0 0.00 0.00 0.00 71 1015.4
20260509190032 70 211 0.0 4.0 0.00 0.00 0.00 71 1015.5
20260509184533 70 201 1.0 5.0 0.00 0.00 0.00 68 1015.6
20260509183030 70 186 0.0 4.0 0.00 0.00 0.00 68 1015.7
20260509181520 68 202 0.0 5.0 0.00 0.00 0.00 70 1015.6
20260509180020 68 169 0.0 5.0 0.00 0.00 0.00 71 1015.7
20260509174517 67 142 0.0 0.0 0.00 0.00 0.00 72 1015.8
20260509173015 65 138 0.0 1.0 0.00 0.00 0.00 78 1015.8
20260509171509 62 345 0.0 2.0 0.00 0.00 0.00 80 1015.8
20260509170002 60 151 0.0 0.0 0.00 0.00 0.00 85 1016.0
20260509164558 56 143 0.0 0.0 0.00 0.00 0.00 86 1015.9
20260509163104 57 144 0.0 0.0 0.00 0.00 0.00 92 1015.9
20260509161557 57 92 0.0 0.0 0.00 0.00 0.00 93 1016.1
20260509160052 56 238 0.0 0.0 0.00 0.00 0.00 94 1016.0
20260509154600 55 153 0.0 0.0 0.00 0.00 0.00 94 1016.1
20260509153046 54 169 0.0 0.0 0.00 0.00 0.00 94 1016.0
20260509151547 53 169 0.0 0.0 0.00 0.00 0.00 94 1016.1
20260509150043 52 167 0.0 0.0 0.00 0.00 0.00 94 1016.0
20260509144536 51 157 0.0 0.0 0.00 0.00 0.00 94 1015.8
20260509143043 50 157 0.0 0.0 0.00 0.00 0.00 94 1015.8
20260509141532 49 226 0.0 0.0 0.00 0.00 0.00 94 1015.8
20260509140029 49 226 0.0 0.0 0.00 0.00 0.00 93 1015.8
20260509134526 48 226 0.0 0.0 0.00 0.01 0.00 93 1015.7